sat.trackr.live / text

‹ back to catalog

SHIYAN-13 (SY-13)

NORAD 51102 · 2022-004A

PAYLOAD ACTIVE UNKNOWN

§ Identity

Operator
Country
PRC
Launch date
2022-01-17
Launch site
TAISC
Launch vehicle
Mass (kg)
RCS (m²)

External: N2YO · Heavens-Above · Gunter

§ Orbital elements

Epoch: 2026-09-20T23:37:57.404352Z

Period
101.35 min
Inclination
98.4547°
Eccentricity
0.0601158
Mean motion
14.20875464 rev/d
Perigee alt
389.5 km
Apogee alt
1,255.3 km
Semi-major
7,200.5 km
B*
7.7625e-5
RAAN
280.2035°
Arg perigee
271.7389°
Mean anomaly
81.5068°
Rev number
24,089

§ Raw data

SHIYAN-13 (SY-13)1 51102U 22004A   26263.98469218  .00001070  00000+0  77625-4 0  99912 51102  98.4547 280.2035 0601158 271.7389  81.5068 14.20875464240898

JSON: /api/v1/satellites/51102 · /tle

For live sub-satellite position, see the globe view (requires WebGL).

§ Visibility from observer

Set your observer location to see the next 7 days of passes ≥ 10°. The values pass through the URL so the page stays shareable.

No JS? Fill the form by hand. The geolocation button needs JavaScript.